Location: LewisvilleTX
(33.0462°N, 96.9942°W)
Time: 11:49:34
(UTC+00:00)

Envisat - Pass Details

Date: 04 October 2021
Orbit: 764 x 766 km, 98.2° (Epoch: 20 October)

Event Time Altitude Azimuth Distance (km) Brightness Sun altitude
Rises 11:45:38 0° 8° (N) 3,233 6.4 -9.0°
Reaches altitude 10° 11:47:58 10° 6° (N) 2,304 5.6 -8.5°
Maximum altitude 11:52:59 66° 285° (WNW) 833 3.0 -7.4°
Drops below altitude 10° 11:57:59 10° 204° (SSW) 2,290 5.3 -6.4°
Sets 12:00:17 0° 201° (SSW) 3,213 6.0 -5.9°
